[[{"header":{"parameterUnit":"m.s-1","parameterCategory":1,"la1":30.2991,"la2":30.254,"lo1":-89.0895,"lo2":-89.0444,"dy":0.0017,"dx":0.0017,"nx":28,"ny":28,"refTime":"2024-10-05T03:00:00:Z","depth":0,"parameterNumber":2,"parameterNumberName":"U-component_of_WINDS"},"data":[0,0,0,0,0,0,0,0,0,0,0,0,0,0,0,0,0,0,0,0,0,0,0,0,0,0,0,0,0,0,0,0,0,0,0,0,0,0,0,0,0,0,0,0,0,0,0,0,0,0,0,0,0,0,0,0,0,0,-4.6911,-4.6912,0,-4.7051,-4.7052,-4.7054,-4.6946,-4.6941,-4.6937,-4.6932,-4.7079,-4.7087,-4.7096,0,0,0,0,0,0,0,0,0,0,0,0,0,-4.6555,-4.6562,-4.6911,-4.6913,-4.6914,-4.705,-4.7052,-4.7054,-4.6947,-4.6941,-4.6936,-4.693,-4.7077,-4.7086,-4.7096,0,0,0,0,0,0,0,0,0,0,0,0,0,-4.6704,-4.6564,-4.6911,-4.6877,-4.6875,-4.705,-4.7052,-4.7055,-4.6948,-4.6941,-4.6934,-4.6928,-4.7073,-4.7085,-4.7098,-4.7314,0,0,-4.7136,-4.7141,0,0,0,0,0,0,0,0,-4.6696,-4.6717,-4.688,-4.688,-4.6878,-4.6974,-4.6981,-4.7142,-4.695,-4.6921,-4.6932,-4.6924,-4.705,-4.7064,-4.7106,-4.7321,-4.7327,-4.7137,-4.7144,-4.7149,-4.7153,0,0,0,0,0,0,0,-4.6685,-4.671,-4.6966,-4.6883,-4.6882,-4.6856,-4.687,-4.7011,-4.7023,-4.6923,-4.6915,-4.6933,-4.7048,-4.7094,-4.7108,-4.7329,-4.7136,-4.7147,-4.7155,-4.716,-4.773,-4.7738,0,0,0,0,0,0,-4.6678,-4.6703,-4.6962,-4.697,-4.6768,-4.6869,-4.6883,-4.695,-4.7021,-4.7025,-4.6939,-4.6927,-4.7076,-4.7094,-4.7113,-4.7372,-4.7149,-4.7161,-4.7168,-4.7723,-4.7732,-4.774,0,0,0,0,0,0,-4.6671,-4.6702,-4.6956,-4.6835,-4.6865,-4.6882,-4.6958,-4.6957,-4.7002,-4.7033,-4.7035,-4.6983,-4.7071,-4.7096,-4.7265,-4.7376,-4.7167,-4.7178,-4.7714,-4.7726,-4.7736,-4.7891,0,0,0,0,0,0,-4.6661,-4.67,-4.6781,-4.6837,-4.6872,-4.7105,-4.6965,-4.6964,-4.7023,-4.701,-4.7075,-4.708,-4.7068,-4.7247,-4.7277,-4.7389,-4.7187,-4.7704,-4.7719,-4.7733,-4.7876,-4.7907,-4.7933,0,0,0,0,0,-4.6648,-4.682,-4.6786,-4.6818,-4.6974,-4.7111,-4.7131,-4.7113,-4.7033,-4.7115,-4.7135,-4.7077,-4.7358,-4.7265,-4.7298,-4.7415,-4.7697,-4.7715,-4.7732,-4.7864,-4.7901,-4.7932,0,0,0,0,0,0,-4.6777,-4.6826,-4.6789,-4.6984,-4.7044,-4.7093,-4.7196,-4.7153,-4.7238,-4.7222,-4.7197,-4.7213,-4.7391,-4.742,-4.7315,-4.7629,-4.7515,-4.754,-4.7604,-4.7639,-4.7667,-4.7657,-4.7198,0,0,0,0,0,-4.6828,-4.6935,-4.6972,-4.714,-4.7172,-4.718,-4.7239,-4.722,-4.7282,-4.7307,-4.7339,-4.7403,-4.7506,-4.7574,-4.767,-4.7879,-4.7893,-4.7977,-4.8005,-4.8028,-4.805,-4.8165,-4.8203,-4.7798,-4.7797,-4.7797,0,0,-4.6935,-4.6975,-4.7044,-4.7167,-4.7211,-4.7324,-4.7202,-4.7325,-4.7409,-4.7326,-4.7488,-4.7514,-4.7584,-4.7775,-4.786,-4.7804,-4.8165,-4.805,-4.8068,-4.8078,-4.8187,-4.8225,-4.8259,-4.7809,-4.7807,-4.7805,0,0,-4.7186,-4.7227,-4.7371,-4.7419,-4.7487,-4.7491,-4.7526,-4.7582,-4.7596,-4.7758,-4.7698,-4.7798,-4.7975,-4.8027,-4.8077,-4.835,-4.8301,-4.8382,-4.853,-4.8642,-4.8674,-4.8702,-4.8802,-4.8837,-4.8404,-4.8405,-4.8405,0,-4.7311,-4.7476,-4.7452,-4.758,-4.7637,-4.7566,-4.7714,-4.7761,-4.7859,-4.79,-4.7835,-4.8057,-4.8098,-4.8301,-4.8368,-4.841,-4.8451,-4.8375,-4.8671,-4.8699,-4.8725,-4.882,-4.8857,-4.8414,-4.8413,-4.8412,-4.8411,0,-4.7626,-4.7742,-4.7851,-4.7946,-4.8015,-4.8153,-4.8151,-4.8224,-4.8199,-4.821,-4.8377,-4.8424,-4.853,-4.8576,-4.8553,-4.8777,-4.874,-4.8674,-4.8559,-4.8774,-4.8862,-4.8898,-4.8428,-4.8424,-4.8421,-4.8419,0,0,-4.7963,-4.8043,-4.8084,-4.8127,-4.8198,-4.8288,-4.8423,-4.8525,-4.8589,-4.8658,-4.8772,-4.8924,-4.8864,-4.892,-4.8903,-4.9001,-4.9217,-4.8923,-4.8925,-4.8978,-4.9468,-4.9519,-4.9561,-4.9184,-4.9191,-4.9196,-4.9463,0,-4.8219,-4.8453,-4.8436,-4.8657,-4.8765,-4.87,-4.8818,-4.8875,-4.889,-4.8985,-4.9001,-4.9109,-4.902,-4.9055,-4.9149,-4.9171,-4.9315,-4.9151,-4.9292,-4.9297,-4.9278,-4.9607,-4.966,-4.991,-4.9497,-4.9503,-4.9507,0,-4.8549,-4.863,-4.8862,-4.8918,-4.8963,-4.9069,-4.9162,-4.9252,-4.9317,-4.9321,-4.9385,-4.9351,-4.9489,-4.937,-4.9562,-4.945,-4.9507,-4.9527,-4.9536,-4.9549,-4.9416,-4.9631,-4.9989,-5.0027,-4.9561,-4.9557,-4.9553,0,-4.8774,-4.894,-4.9101,-4.914,-4.9209,-4.9285,-4.9318,-4.9375,-4.9438,-4.952,-4.956,-4.9658,-4.9711,-4.9788,-4.9782,-4.9696,-4.9978,-4.9857,-4.9986,-4.9987,-5.005,-5.0046,-5.0423,-5.0084,-5.0083,-5.0083,-5.0082,0,-4.9062,-4.9207,-4.9203,-4.9302,-4.9463,-4.9443,-4.9603,-4.9627,-4.9679,-4.9783,-4.9733,-4.9832,-4.9818,-4.9918,-4.9914,-5.0074,-5.0099,-5.0107,-5.0105,-5.0113,-5.0112,-5.015,-5.0133,-5.0093,-5.009,-5.0088,-5.0087,0,-4.9341,-4.9343,-4.9514,-4.9566,-4.9582,-4.9699,-4.9744,-4.9839,-4.9848,-4.9981,-5.0011,-5.0028,-5.0143,-5.0145,-5.0277,-5.0274,-5.0471,-5.0448,-5.0449,-5.0445,-5.0574,-5.0563,-5.0991,-5.1047,-5.067,-5.0673,-5.0676,0,-4.9525,-4.9635,-4.9698,-4.9764,-4.9801,-4.9907,-4.9971,-4.9956,-5.0024,-5.0107,-5.0193,-5.0303,-5.039,-5.0577,-5.0603,-5.0704,-5.0684,-5.0827,-5.0699,-5.0704,-5.0688,-5.0683,-5.0694,-5.0853,-5.0857,-5.086,-5.0863,0,-4.9853,-4.9849,-4.9942,-5.0037,-5.0115,-5.0189,-5.0257,-5.0314,-5.0307,-5.0387,-5.0504,-5.0571,-5.0706,-5.0817,-5.0915,-5.095,-5.0908,-5.0903,-5.0938,-5.0948,-5.0945,-5.095,-5.0519,-5.0894,-5.089,-5.0888,-5.0887,-5.0885,-5.0091,-5.0186,-5.0246,-5.0352,-5.0402,-5.0468,-5.056,-5.0581,-5.0678,-5.0786,-5.0771,-5.0902,-5.0965,-5.1092,-5.1136,-5.1239,-5.1189,-5.1241,-5.1254,-5.1267,-5.1282,-5.0927,-5.1257,-5.1256,-5.1255,-5.1254,-5.1254,0,-5.0417,-5.0453,-5.0551,-5.0648,-5.0732,-5.0682,-5.0756,-5.083,-5.0945,-5.1007,-5.1094,-5.123,-5.1337,-5.1371,-5.1476,-5.1552,-5.1535,-5.158,-5.1575,-5.1585,-5.1319,-5.1279,-5.1593,-5.1593,-5.1592,-5.1592,-5.1592,-5.1592,-5.0597,-5.0757,-5.076,-5.0944,-5.0979,-5.1106,-5.1152,-5.1213,-5.1263,-5.1416,-5.1505,-5.1525,-5.1577,-5.1685,-5.1782,-5.179,-5.1832,-5.1886,-5.1885,-5.1637,-5.1603,-5.1571,-5.1533,-5.1894,-5.1895,-5.2142,-5.2144,-5.2146]},{"header":{"parameterUnit":"m.s-1","parameterCategory":1,"la1":30.2991,"la2":30.254,"lo1":-89.0895,"lo2":-89.0444,"dy":0.0017,"dx":0.0017,"nx":28,"ny":28,"refTime":"2024-10-05T03:00:00:Z","depth":0,"parameterNumber":3,"parameterNumberName":"V-component_of_WINDS"},"data":[0,0,0,0,0,0,0,0,0,0,0,0,0,0,0,0,0,0,0,0,0,0,0,0,0,0,0,0,0,0,0,0,0,0,0,0,0,0,0,0,0,0,0,0,0,0,0,0,0,0,0,0,0,0,0,0,0,0,-2.3942,-2.3942,0,-2.3931,-2.3931,-2.3931,-2.3851,-2.3849,-2.3847,-2.3845,-2.3834,-2.3835,-2.3837,0,0,0,0,0,0,0,0,0,0,0,0,0,-2.3896,-2.3897,-2.3942,-2.3942,-2.3942,-2.3931,-2.3931,-2.3931,-2.3851,-2.3849,-2.3846,-2.3844,-2.3833,-2.3835,-2.3837,0,0,0,0,0,0,0,0,0,0,0,0,0,-2.3903,-2.3897,-2.3943,-2.3901,-2.3897,-2.3931,-2.3931,-2.393,-2.3851,-2.3849,-2.3846,-2.3843,-2.3833,-2.3835,-2.3837,-2.391,0,0,-2.3844,-2.3845,0,0,0,0,0,0,0,0,-2.3903,-2.3905,-2.3907,-2.3904,-2.39,-2.3889,-2.391,-2.3924,-2.3852,-2.3869,-2.3845,-2.3841,-2.3855,-2.3855,-2.3859,-2.3909,-2.3909,-2.3844,-2.3846,-2.3847,-2.3847,0,0,0,0,0,0,0,-2.3903,-2.3905,-2.3938,-2.3907,-2.3903,-2.3883,-2.3881,-2.3912,-2.3878,-2.3867,-2.3861,-2.3861,-2.3852,-2.3857,-2.3858,-2.3909,-2.3844,-2.3846,-2.3848,-2.3849,-2.4017,-2.402,0,0,0,0,0,0,-2.3908,-2.3905,-2.3938,-2.3937,-2.3894,-2.3886,-2.3884,-2.3896,-2.3878,-2.3872,-2.3864,-2.3857,-2.3855,-2.3856,-2.3858,-2.3942,-2.3847,-2.3849,-2.385,-2.4014,-2.4018,-2.4021,0,0,0,0,0,0,-2.3907,-2.3911,-2.3939,-2.392,-2.3922,-2.389,-2.3904,-2.3897,-2.3902,-2.3875,-2.3869,-2.3875,-2.3852,-2.3854,-2.3897,-2.394,-2.385,-2.3852,-2.4011,-2.4016,-2.402,-2.4111,0,0,0,0,0,0,-2.3906,-2.3912,-2.3939,-2.3921,-2.3923,-2.3979,-2.3907,-2.3899,-2.3906,-2.3898,-2.3884,-2.3879,-2.385,-2.3894,-2.39,-2.3942,-2.3854,-2.4007,-2.4013,-2.4018,-2.4104,-2.4118,-2.413,0,0,0,0,0,-2.3905,-2.3965,-2.3941,-2.3945,-2.3957,-2.3982,-2.3983,-2.3948,-2.391,-2.3937,-2.392,-2.388,-2.3934,-2.3899,-2.3905,-2.3948,-2.4004,-2.4011,-2.4018,-2.4098,-2.4115,-2.413,0,0,0,0,0,0,-2.399,-2.3962,-2.3935,-2.3992,-2.399,-2.3968,-2.4002,-2.3968,-2.3977,-2.3969,-2.3925,-2.3923,-2.3972,-2.3964,-2.3926,-2.4017,-2.3962,-2.3971,-2.4021,-2.4037,-2.405,-2.4052,-2.3856,0,0,0,0,0,-2.4015,-2.4038,-2.4012,-2.4065,-2.4065,-2.4034,-2.4043,-2.4017,-2.4013,-2.4012,-2.3997,-2.3995,-2.4012,-2.4024,-2.4038,-2.4102,-2.4098,-2.4134,-2.4147,-2.4158,-2.4166,-2.42,-2.4216,-2.4045,-2.4044,-2.4044,0,0,-2.4068,-2.4056,-2.4073,-2.4082,-2.4077,-2.4101,-2.4034,-2.4062,-2.408,-2.4016,-2.4056,-2.4045,-2.404,-2.4094,-2.4117,-2.4089,-2.4213,-2.4167,-2.4176,-2.4178,-2.4209,-2.4225,-2.4239,-2.4049,-2.4048,-2.4048,0,0,-2.4177,-2.417,-2.4213,-2.4209,-2.4202,-2.4181,-2.4191,-2.4175,-2.4165,-2.4204,-2.4157,-2.4177,-2.4207,-2.4205,-2.4208,-2.4315,-2.4279,-2.4321,-2.439,-2.4423,-2.4437,-2.4448,-2.4487,-2.4502,-2.4329,-2.4329,-2.4329,0,-2.4244,-2.4279,-2.4239,-2.4271,-2.4276,-2.4219,-2.4262,-2.426,-2.4259,-2.4264,-2.4232,-2.4268,-2.426,-2.4313,-2.4339,-2.4343,-2.4354,-2.4323,-2.4438,-2.4449,-2.4459,-2.4496,-2.4511,-2.4334,-2.4333,-2.4333,-2.4332,0,-2.4361,-2.4386,-2.4421,-2.4421,-2.443,-2.4467,-2.4434,-2.4447,-2.442,-2.4402,-2.4442,-2.4431,-2.4441,-2.4451,-2.4425,-2.4501,-2.4483,-2.4445,-2.4389,-2.4482,-2.4516,-2.4529,-2.4342,-2.434,-2.4338,-2.4337,0,0,-2.4525,-2.4501,-2.4515,-2.4514,-2.4502,-2.4521,-2.4555,-2.4565,-2.4578,-2.4578,-2.4607,-2.4633,-2.4597,-2.4601,-2.4573,-2.4602,-2.4688,-2.456,-2.4559,-2.4585,-2.4772,-2.4802,-2.4819,-2.4663,-2.4666,-2.4668,-2.4773,0,-2.463,-2.4688,-2.4653,-2.4716,-2.4738,-2.4683,-2.4713,-2.4709,-2.4693,-2.471,-2.4691,-2.4711,-2.4662,-2.4664,-2.469,-2.4672,-2.4725,-2.4664,-2.469,-2.4691,-2.4695,-2.4836,-2.4868,-2.4967,-2.4785,-2.4788,-2.4789,0,-2.4761,-2.4767,-2.4832,-2.4815,-2.4823,-2.4851,-2.4857,-2.4874,-2.4868,-2.4854,-2.4857,-2.4822,-2.4855,-2.4799,-2.4843,-2.4803,-2.4811,-2.4804,-2.4807,-2.4809,-2.4747,-2.4843,-2.4998,-2.5014,-2.4809,-2.4808,-2.4806,0,-2.4875,-2.4899,-2.4941,-2.4942,-2.4923,-2.4944,-2.4937,-2.4928,-2.4936,-2.4942,-2.4946,-2.4956,-2.4961,-2.4969,-2.4937,-2.4899,-2.4987,-2.4927,-2.4977,-2.4978,-2.4999,-2.4998,-2.5159,-2.5002,-2.5002,-2.5002,-2.5001,0,-2.4997,-2.504,-2.4992,-2.5019,-2.5064,-2.5023,-2.507,-2.5057,-2.5049,-2.5072,-2.5025,-2.5047,-2.5003,-2.5021,-2.4997,-2.5038,-2.5041,-2.5031,-2.5024,-2.5036,-2.5037,-2.5042,-2.5035,-2.5006,-2.5005,-2.5004,-2.5003,0,-2.5133,-2.5103,-2.5146,-2.5124,-2.5119,-2.5154,-2.5136,-2.5159,-2.5139,-2.5168,-2.5173,-2.5142,-2.516,-2.5129,-2.5144,-2.5128,-2.5185,-2.5167,-2.5188,-2.5183,-2.5234,-2.5231,-2.5404,-2.5425,-2.5255,-2.5256,-2.5258,0,-2.5214,-2.5245,-2.5226,-2.5238,-2.5234,-2.5253,-2.5261,-2.5221,-2.5232,-2.5227,-2.5251,-2.5265,-2.5275,-2.5308,-2.5287,-2.5298,-2.5281,-2.5341,-2.5282,-2.5293,-2.5283,-2.5282,-2.5285,-2.5353,-2.5355,-2.5357,-2.5358,0,-2.536,-2.5343,-2.5356,-2.5364,-2.5375,-2.5379,-2.538,-2.5392,-2.535,-2.5364,-2.5383,-2.539,-2.5405,-2.5421,-2.5427,-2.5419,-2.5383,-2.5377,-2.5389,-2.5402,-2.5413,-2.5409,-2.5222,-2.5373,-2.5372,-2.5371,-2.537,-2.5369,-2.5471,-2.5497,-2.5487,-2.5503,-2.55,-2.5501,-2.5522,-2.5504,-2.5519,-2.5528,-2.5503,-2.5528,-2.5521,-2.5525,-2.5522,-2.554,-2.5514,-2.5531,-2.5536,-2.5541,-2.555,-2.5409,-2.5541,-2.5541,-2.554,-2.554,-2.5539,0,-2.5616,-2.5607,-2.5622,-2.5625,-2.5637,-2.56,-2.5599,-2.5612,-2.5634,-2.563,-2.564,-2.5662,-2.5676,-2.5656,-2.5667,-2.5686,-2.5669,-2.569,-2.5689,-2.5689,-2.5573,-2.5561,-2.5704,-2.5704,-2.5704,-2.5704,-2.5704,-2.5704,-2.5693,-2.5734,-2.5716,-2.5755,-2.5745,-2.5768,-2.5771,-2.5773,-2.5769,-2.5795,-2.5807,-2.5793,-2.5783,-2.5792,-2.5804,-2.5798,-2.5805,-2.5832,-2.582,-2.5713,-2.5697,-2.5681,-2.5671,-2.5834,-2.5834,-2.5935,-2.5936,-2.5936]}]]